Torna al catalogo

STARLINK-1394

AttivoComunicazioniVLEO
NORAD 45679·PAYLOAD·🇺🇸 United States

Lanciato Jun 4, 2020 da Cape Canaveral Space Force Station

Loading…

Prossimi Passaggi (prossime 24 ore)

TLE

AggiornatoSource: CelesTrak SupGP

Epoca: Sep 14, 2026, 21:23 UTC

1 45679C 20035Y   26257.89145833  .00058366  00000+0  32887-3 0  2579
2 45679  53.0325 187.4784 0005459  85.3119  33.1128 15.78440731    19

Traccia STARLINK-1394 in tempo reale con AllMySat

Download on the App Store